UAE1676 VHHH-OMDB

Flight info

Callsign UAE1676
Flight time 7h 54m
Altitude 30000
Route PECAN V10 SIKOU/K0935S0920 A202 ASSAD/K0939F300 A206 NALAO/N0506F300 A206 LPB B465 APAGO/N0501F320 B465 CEA A791 BPL L639 MILUP/N0489F340 L639 RASKI L301 RAGMA N571 VUSET A454 PASOV B540 KUPMA/N0458F240 B540 MIVEK P574 IMPED
Aircraft B77L/H-SDE1E2E3FGHIJ2J3J4J5M1RWXY/LB1D1

Departure

Time 2026-04-26 12:31
Airport Hong Kong International Airport (VHHH)

Arrival

Time 2026-04-26 20:25
Airport Dubai International Airport (OMDB)
Time Latitude Longitude Altitude Speed Heading
2026-04-26 11:39 22.30412 113.90741 41 ft 0 kts 72°
2026-04-26 12:19 22.30410 113.90733 41 ft 2 kts 72°
2026-04-26 12:19 22.30405 113.90718 41 ft 2 kts 71°
2026-04-26 12:19 22.30400 113.90703 41 ft 2 kts 71°
2026-04-26 12:20 22.30395 113.90688 41 ft 2 kts 70°
2026-04-26 12:20 22.30390 113.90672 41 ft 2 kts 72°
2026-04-26 12:20 22.30388 113.90656 41 ft 2 kts 102°
2026-04-26 12:20 22.30394 113.90641 41 ft 2 kts 126°
2026-04-26 12:21 22.30404 113.90630 41 ft 2 kts 151°
2026-04-26 12:21 22.30418 113.90624 41 ft 2 kts 165°
2026-04-26 12:21 22.30423 113.90623 41 ft 0 kts 164°
2026-04-26 12:25 22.30405 113.90629 41 ft 4 kts 161°
2026-04-26 12:25 22.30365 113.90644 41 ft 7 kts 161°
2026-04-26 12:25 22.30306 113.90666 41 ft 10 kts 161°
2026-04-26 12:25 22.30233 113.90694 41 ft 11 kts 160°
2026-04-26 12:26 22.30182 113.90673 41 ft 8 kts 238°
2026-04-26 12:26 22.30159 113.90611 41 ft 9 kts 250°
2026-04-26 12:26 22.30136 113.90542 41 ft 10 kts 251°
2026-04-26 12:26 22.30110 113.90458 41 ft 13 kts 251°
2026-04-26 12:27 22.30076 113.90354 41 ft 16 kts 250°
2026-04-26 12:27 22.30036 113.90230 41 ft 18 kts 251°
2026-04-26 12:27 22.29991 113.90091 41 ft 20 kts 251°
2026-04-26 12:27 22.29942 113.89936 41 ft 22 kts 251°
2026-04-26 12:28 22.29891 113.89781 41 ft 19 kts 250°
2026-04-26 12:28 22.29830 113.89732 41 ft 10 kts 167°
2026-04-26 12:28 22.29764 113.89755 41 ft 9 kts 161°
2026-04-26 12:28 22.29709 113.89775 41 ft 7 kts 161°
2026-04-26 12:29 22.29660 113.89794 41 ft 7 kts 159°
2026-04-26 12:29 22.29633 113.89829 41 ft 6 kts 82°
2026-04-26 12:29 22.29744 113.90178 41 ft 73 kts 71°
2026-04-26 12:30 22.29977 113.90905 41 ft 130 kts 71°
2026-04-26 12:30 22.30338 113.92011 43 ft 178 kts 71°
2026-04-26 12:30 22.30756 113.93316 461 ft 187 kts 72°
2026-04-26 12:31 22.31653 113.96098 1415 ft 209 kts 71°
2026-04-26 12:31 22.32140 113.97620 1799 ft 223 kts 71°
2026-04-26 12:31 22.32659 113.99236 2340 ft 231 kts 71°
2026-04-26 12:31 22.33195 114.00905 2798 ft 245 kts 71°
2026-04-26 12:32 22.33739 114.02713 3303 ft 259 kts 77°
2026-04-26 12:32 22.33845 114.04654 3940 ft 265 kts 101°
2026-04-26 12:32 22.31854 114.07934 5387 ft 273 kts 147°
2026-04-26 12:33 22.30097 114.08736 6080 ft 278 kts 167°
2026-04-26 12:33 22.28135 114.08893 6695 ft 284 kts 182°
2026-04-26 12:33 22.26165 114.08778 7326 ft 288 kts 181°
2026-04-26 12:33 22.24148 114.08747 7928 ft 291 kts 179°
2026-04-26 12:34 22.22089 114.08749 8517 ft 295 kts 179°
2026-04-26 12:34 22.20025 114.08753 9146 ft 297 kts 180°
2026-04-26 12:34 22.17978 114.08757 9750 ft 300 kts 180°
2026-04-26 12:34 22.15849 114.08760 10280 ft 306 kts 180°
2026-04-26 12:35 22.13690 114.08763 10562 ft 321 kts 181°
2026-04-26 12:35 22.11397 114.08766 10859 ft 336 kts 181°
2026-04-26 12:35 22.08983 114.08769 11174 ft 351 kts 180°
2026-04-26 12:35 22.06484 114.08772 11504 ft 366 kts 180°
2026-04-26 12:36 22.03872 114.08775 11848 ft 379 kts 180°
2026-04-26 12:36 22.01181 114.08780 12208 ft 392 kts 180°
2026-04-26 12:36 21.98420 114.08785 12737 ft 398 kts 180°
2026-04-26 12:36 21.95634 114.08789 13340 ft 402 kts 180°
2026-04-26 12:37 21.92828 114.08794 13927 ft 405 kts 180°
2026-04-26 12:37 21.89990 114.08801 14531 ft 408 kts 180°
2026-04-26 12:37 21.87110 114.08806 15100 ft 412 kts 180°
2026-04-26 12:37 21.84245 114.08811 15657 ft 415 kts 180°
2026-04-26 12:38 21.81313 114.08817 16217 ft 418 kts 180°
2026-04-26 12:38 21.78386 114.08822 16766 ft 421 kts 180°
2026-04-26 12:38 21.75466 114.08826 17301 ft 423 kts 180°
2026-04-26 12:38 21.72489 114.08831 17834 ft 426 kts 180°
2026-04-26 12:39 21.69515 114.08836 18356 ft 429 kts 181°
2026-04-26 12:39 21.66490 114.08838 18875 ft 432 kts 182°
2026-04-26 12:39 21.63467 114.08521 19365 ft 433 kts 192°
2026-04-26 12:39 21.60495 114.07803 19868 ft 435 kts 194°
2026-04-26 12:40 21.57545 114.07037 20366 ft 438 kts 195°
2026-04-26 12:40 21.54554 114.06258 20843 ft 440 kts 195°
2026-04-26 12:40 21.51529 114.05472 21308 ft 443 kts 195°
2026-04-26 12:40 21.48487 114.04682 21767 ft 446 kts 195°
2026-04-26 12:41 21.45466 114.03809 22205 ft 447 kts 200°
2026-04-26 12:41 21.42615 114.02471 22620 ft 448 kts 210°
2026-04-26 12:41 21.39926 114.00691 23053 ft 449 kts 214°
2026-04-26 12:41 21.37281 113.98823 23506 ft 451 kts 215°
2026-04-26 12:42 21.34623 113.96938 23960 ft 453 kts 215°
2026-04-26 12:42 21.31937 113.95038 24397 ft 456 kts 215°
2026-04-26 12:42 21.29256 113.93140 24822 ft 459 kts 215°
2026-04-26 12:42 21.26583 113.91251 25247 ft 461 kts 215°
2026-04-26 12:43 21.23838 113.89312 25684 ft 464 kts 215°
2026-04-26 12:43 21.21105 113.87382 26117 ft 467 kts 216°
2026-04-26 12:43 21.18366 113.85449 26549 ft 469 kts 216°
2026-04-26 12:43 21.15613 113.83508 26980 ft 472 kts 216°
2026-04-26 12:44 21.12950 113.81468 27392 ft 473 kts 222°
2026-04-26 12:44 21.10528 113.78970 27806 ft 473 kts 231°
2026-04-26 12:44 21.08541 113.76176 28232 ft 473 kts 239°
2026-04-26 12:44 21.06957 113.73063 28676 ft 473 kts 248°
2026-04-26 12:45 21.05772 113.69752 29126 ft 474 kts 252°
2026-04-26 12:45 21.04674 113.66366 29662 ft 474 kts 252°
2026-04-26 12:45 21.03599 113.63038 29992 ft 475 kts 252°
2026-04-26 12:46 21.01448 113.56387 30031 ft 466 kts 252°
2026-04-26 12:46 20.99338 113.49882 30014 ft 463 kts 253°
2026-04-26 12:47 20.97215 113.43349 29972 ft 461 kts 253°
2026-04-26 12:47 20.95111 113.36886 29942 ft 463 kts 252°
2026-04-26 12:48 20.92984 113.30363 29958 ft 464 kts 252°
2026-04-26 12:48 20.90864 113.23872 29969 ft 464 kts 252°
2026-04-26 12:49 20.88735 113.17363 29972 ft 465 kts 252°
2026-04-26 12:49 20.86606 113.10864 29971 ft 465 kts 252°
2026-04-26 12:50 20.84471 113.04353 29972 ft 465 kts 252°
2026-04-26 12:50 20.82331 112.97838 29970 ft 464 kts 252°
2026-04-26 12:51 20.80201 112.91365 29968 ft 464 kts 252°
2026-04-26 12:51 20.78056 112.84856 29967 ft 464 kts 252°
2026-04-26 12:52 20.75917 112.78370 29966 ft 464 kts 252°
2026-04-26 12:52 20.73761 112.71845 30134 ft 471 kts 252°
2026-04-26 12:52 20.72669 112.68542 30579 ft 468 kts 252°
2026-04-26 12:53 20.71599 112.65311 31132 ft 463 kts 252°
2026-04-26 12:53 20.70542 112.62119 31626 ft 460 kts 252°
2026-04-26 12:53 20.69473 112.58894 31959 ft 462 kts 252°
2026-04-26 12:54 20.67331 112.52438 32058 ft 459 kts 252°
2026-04-26 12:54 20.65204 112.46035 32123 ft 457 kts 253°
2026-04-26 12:55 20.63079 112.39649 32074 ft 455 kts 253°
2026-04-26 12:55 20.60918 112.33164 32043 ft 457 kts 252°
2026-04-26 12:56 20.58772 112.26732 32055 ft 458 kts 252°
2026-04-26 12:56 20.57039 112.20270 32058 ft 455 kts 263°
2026-04-26 12:57 20.56950 112.13547 32057 ft 453 kts 278°
2026-04-26 12:57 20.58607 112.07060 32056 ft 453 kts 292°
2026-04-26 12:58 20.62724 111.97976 32075 ft 456 kts 295°
2026-04-26 12:58 20.64121 111.94908 32280 ft 460 kts 295°
2026-04-26 12:58 20.65497 111.91878 32750 ft 456 kts 295°
2026-04-26 12:59 20.66883 111.88820 33063 ft 457 kts 295°
2026-04-26 12:59 20.68270 111.85751 32951 ft 459 kts 295°
2026-04-26 12:59 20.71007 111.79686 33018 ft 448 kts 295°
2026-04-26 13:00 20.72391 111.76614 33178 ft 454 kts 295°
2026-04-26 13:00 20.73750 111.73592 33538 ft 452 kts 295°
2026-04-26 13:00 20.75112 111.70564 33911 ft 451 kts 295°
2026-04-26 13:00 20.76472 111.67537 34008 ft 451 kts 295°
2026-04-26 13:01 20.79189 111.61482 34107 ft 448 kts 295°
2026-04-26 13:01 20.81572 111.55409 34143 ft 443 kts 285°
2026-04-26 13:02 20.82455 111.48900 33940 ft 441 kts 271°
2026-04-26 13:02 20.81671 111.42577 33864 ft 419 kts 257°
2026-04-26 13:03 20.80777 111.39648 33829 ft 405 kts 253°
2026-04-26 13:03 20.79870 111.36871 33807 ft 390 kts 253°
2026-04-26 13:03 20.78070 111.31403 33818 ft 397 kts 253°
2026-04-26 13:04 20.76210 111.25816 34039 ft 401 kts 253°
2026-04-26 13:04 20.74307 111.20136 34049 ft 411 kts 253°
2026-04-26 13:05 20.72356 111.14330 34071 ft 423 kts 253°
2026-04-26 13:05 20.70329 111.08316 34074 ft 436 kts 252°
2026-04-26 13:06 20.68238 111.02119 34057 ft 449 kts 252°
2026-04-26 13:06 20.66101 110.95804 34053 ft 449 kts 252°
2026-04-26 13:07 20.65050 110.92705 33915 ft 439 kts 252°
2026-04-26 13:07 20.64013 110.89642 33331 ft 441 kts 252°
2026-04-26 13:07 20.62983 110.86571 32499 ft 449 kts 253°
2026-04-26 13:07 20.61922 110.83403 31695 ft 455 kts 252°
2026-04-26 13:08 20.60859 110.80235 30922 ft 456 kts 252°
2026-04-26 13:08 20.59789 110.77052 30159 ft 455 kts 252°
2026-04-26 13:08 20.58733 110.73911 29831 ft 446 kts 252°
2026-04-26 13:08 20.57673 110.70761 29791 ft 452 kts 252°
2026-04-26 13:09 20.55528 110.64388 29876 ft 464 kts 252°
2026-04-26 13:09 20.53336 110.57890 29877 ft 465 kts 252°
2026-04-26 13:10 20.51047 110.51414 29961 ft 467 kts 247°
2026-04-26 13:10 20.47537 110.45622 29970 ft 470 kts 234°
2026-04-26 13:11 20.43416 110.40210 29941 ft 469 kts 234°
2026-04-26 13:11 20.39270 110.34786 29941 ft 469 kts 233°
2026-04-26 13:12 20.35169 110.29424 29950 ft 469 kts 233°
2026-04-26 13:12 20.31021 110.24006 29949 ft 469 kts 233°
2026-04-26 13:13 20.26924 110.18580 29948 ft 468 kts 234°
2026-04-26 13:13 20.22877 110.13169 29946 ft 468 kts 234°
2026-04-26 13:14 20.18812 110.07745 29944 ft 468 kts 234°
2026-04-26 13:14 20.14744 110.02323 29943 ft 467 kts 234°
2026-04-26 13:15 20.10694 109.96931 29943 ft 467 kts 234°
2026-04-26 13:15 20.06629 109.91526 29942 ft 466 kts 234°
2026-04-26 13:16 20.02556 109.86116 29942 ft 466 kts 234°
2026-04-26 13:16 19.98517 109.80756 29942 ft 466 kts 234°
2026-04-26 13:17 19.92406 109.72655 29943 ft 466 kts 234°
2026-04-26 13:18 19.86315 109.64592 29943 ft 467 kts 234°
2026-04-26 13:19 19.80216 109.56529 29943 ft 467 kts 234°
2026-04-26 13:19 19.76141 109.51148 29943 ft 467 kts 234°
2026-04-26 13:20 19.72065 109.45770 29942 ft 468 kts 234°
2026-04-26 13:20 19.67963 109.40361 30088 ft 478 kts 234°
2026-04-26 13:20 19.65875 109.37611 30577 ft 476 kts 234°
2026-04-26 13:21 19.63813 109.34898 31245 ft 470 kts 234°
2026-04-26 13:21 19.61769 109.32210 31790 ft 469 kts 234°
2026-04-26 13:21 19.59715 109.29507 31969 ft 473 kts 234°
2026-04-26 13:22 19.55626 109.24133 32026 ft 469 kts 234°
2026-04-26 13:22 19.51517 109.18737 32034 ft 468 kts 234°
2026-04-26 13:23 19.47399 109.13390 31952 ft 467 kts 234°
2026-04-26 13:23 19.43295 109.08069 31931 ft 468 kts 234°
2026-04-26 13:24 19.39112 109.02651 31946 ft 468 kts 234°
2026-04-26 13:24 19.34992 108.97318 31946 ft 468 kts 234°
2026-04-26 13:25 19.30889 108.92011 31945 ft 467 kts 234°
2026-04-26 13:25 19.26757 108.86671 31943 ft 467 kts 235°
2026-04-26 13:26 19.22643 108.81358 31941 ft 467 kts 235°
2026-04-26 13:26 19.18512 108.76026 31940 ft 467 kts 235°
2026-04-26 13:27 19.14392 108.70714 31939 ft 468 kts 235°
2026-04-26 13:27 19.10279 108.65414 31939 ft 468 kts 235°
2026-04-26 13:28 19.06100 108.60036 31938 ft 468 kts 235°
2026-04-26 13:28 19.01954 108.54703 31937 ft 468 kts 235°
2026-04-26 13:29 18.97808 108.49377 31935 ft 468 kts 235°
2026-04-26 13:29 18.93697 108.44099 31934 ft 467 kts 235°
2026-04-26 13:30 18.89559 108.38790 31933 ft 467 kts 235°
2026-04-26 13:30 18.85415 108.33478 31936 ft 467 kts 235°
2026-04-26 13:31 18.81302 108.28213 31939 ft 467 kts 235°
2026-04-26 13:31 18.77147 108.22896 31939 ft 467 kts 235°
2026-04-26 13:32 18.73014 108.17612 31938 ft 467 kts 235°
2026-04-26 13:32 18.68893 108.12349 31937 ft 467 kts 235°
2026-04-26 13:33 18.64737 108.07044 31936 ft 467 kts 235°
2026-04-26 13:33 18.60612 108.01784 31936 ft 467 kts 235°
2026-04-26 13:34 18.56461 107.96496 31933 ft 467 kts 235°
2026-04-26 13:34 18.52335 107.91244 31930 ft 467 kts 235°
2026-04-26 13:35 18.48196 107.85980 31930 ft 467 kts 235°
2026-04-26 13:35 18.44040 107.80697 31929 ft 467 kts 235°
2026-04-26 13:36 18.39951 107.75378 31927 ft 463 kts 240°
2026-04-26 13:36 18.37083 107.69422 31925 ft 454 kts 255°
2026-04-26 13:37 18.35917 107.62982 31924 ft 448 kts 270°
2026-04-26 13:37 18.36451 107.56519 31924 ft 445 kts 282°
2026-04-26 13:38 18.37726 107.50172 31923 ft 445 kts 283°
2026-04-26 13:38 18.39010 107.43772 31923 ft 447 kts 283°
2026-04-26 13:39 18.40293 107.37334 32444 ft 452 kts 283°
2026-04-26 13:39 18.40928 107.34134 33091 ft 444 kts 282°
2026-04-26 13:39 18.41559 107.30946 33648 ft 439 kts 282°
2026-04-26 13:39 18.42177 107.27827 33885 ft 442 kts 282°
2026-04-26 13:40 18.42813 107.24609 34036 ft 445 kts 282°
2026-04-26 13:40 18.44075 107.18211 34057 ft 436 kts 282°
2026-04-26 13:41 18.45310 107.11934 33912 ft 429 kts 282°
2026-04-26 13:41 18.46552 107.05614 33888 ft 435 kts 282°
2026-04-26 13:42 18.47780 106.99342 33910 ft 435 kts 282°
2026-04-26 13:42 18.49013 106.93030 33912 ft 434 kts 282°
2026-04-26 13:43 18.50223 106.86826 33916 ft 434 kts 282°
2026-04-26 13:43 18.51441 106.80569 33915 ft 434 kts 282°
2026-04-26 13:44 18.52658 106.74309 33911 ft 434 kts 282°
2026-04-26 13:44 18.53866 106.68080 33910 ft 434 kts 282°
2026-04-26 13:45 18.55069 106.61862 33908 ft 434 kts 282°
2026-04-26 13:45 18.56284 106.55612 33905 ft 434 kts 282°
2026-04-26 13:46 18.57523 106.49309 33901 ft 434 kts 282°
2026-04-26 13:46 18.58742 106.43080 33900 ft 434 kts 282°
2026-04-26 13:47 18.59969 106.36801 33899 ft 435 kts 282°
2026-04-26 13:47 18.61185 106.30563 33910 ft 435 kts 282°
2026-04-26 13:48 18.62402 106.24310 33911 ft 435 kts 282°
2026-04-26 13:48 18.63618 106.18053 33910 ft 435 kts 282°
2026-04-26 13:49 18.64835 106.11775 33908 ft 435 kts 282°
2026-04-26 13:49 18.66042 106.05514 33907 ft 435 kts 282°
2026-04-26 13:50 18.67237 105.99270 33906 ft 435 kts 282°
2026-04-26 13:50 18.68430 105.93025 33905 ft 435 kts 282°
2026-04-26 13:51 18.69621 105.86781 33903 ft 435 kts 282°
2026-04-26 13:51 18.70811 105.80533 33902 ft 436 kts 282°
2026-04-26 13:52 18.72007 105.74239 33902 ft 437 kts 282°
2026-04-26 13:52 18.73205 105.67971 33895 ft 436 kts 284°
2026-04-26 13:53 18.75108 105.61874 33895 ft 437 kts 290°
2026-04-26 13:53 18.77176 105.55882 33893 ft 437 kts 290°
2026-04-26 13:54 18.79261 105.49824 33893 ft 437 kts 290°
2026-04-26 13:54 18.81337 105.43782 33892 ft 437 kts 290°
2026-04-26 13:55 18.84095 105.35739 33891 ft 438 kts 290°
2026-04-26 13:56 18.87555 105.25627 33902 ft 438 kts 290°
2026-04-26 13:56 18.89628 105.19561 33905 ft 439 kts 289°
2026-04-26 13:57 18.91694 105.13505 33907 ft 439 kts 289°
2026-04-26 13:57 18.93766 105.07427 33892 ft 439 kts 289°
2026-04-26 13:58 18.95832 105.01355 33899 ft 442 kts 289°
2026-04-26 13:58 18.97928 104.95194 33879 ft 441 kts 290°
2026-04-26 13:59 18.99993 104.89114 33905 ft 442 kts 290°
2026-04-26 13:59 19.02065 104.83006 33867 ft 443 kts 289°
2026-04-26 14:00 19.06204 104.70779 33919 ft 443 kts 289°
2026-04-26 14:01 19.08273 104.64660 33897 ft 443 kts 289°
2026-04-26 14:01 19.10359 104.58475 33785 ft 443 kts 289°
2026-04-26 14:02 19.12435 104.52311 33684 ft 444 kts 289°
2026-04-26 14:02 19.14510 104.46148 33709 ft 445 kts 289°
2026-04-26 14:03 19.16587 104.39970 33819 ft 446 kts 289°
2026-04-26 14:03 19.18666 104.33781 33866 ft 446 kts 289°
2026-04-26 14:04 19.20734 104.27617 33880 ft 447 kts 289°
2026-04-26 14:04 19.22816 104.21401 33882 ft 447 kts 289°
2026-04-26 14:05 19.24902 104.15167 33916 ft 448 kts 289°
2026-04-26 14:05 19.26992 104.08913 33915 ft 448 kts 289°
2026-04-26 14:06 19.29082 104.02647 33941 ft 448 kts 289°
2026-04-26 14:06 19.31161 103.96412 33984 ft 448 kts 289°
2026-04-26 14:07 19.33224 103.90188 33982 ft 449 kts 289°
2026-04-26 14:07 19.35262 103.83930 33968 ft 450 kts 289°
2026-04-26 14:08 19.37305 103.77648 33945 ft 450 kts 289°
2026-04-26 14:08 19.39365 103.71313 33932 ft 451 kts 289°
2026-04-26 14:09 19.41413 103.65003 33933 ft 451 kts 289°
2026-04-26 14:09 19.43484 103.58684 33932 ft 451 kts 290°
2026-04-26 14:10 19.45616 103.52457 33931 ft 451 kts 290°
2026-04-26 14:10 19.47754 103.46197 33922 ft 451 kts 290°
2026-04-26 14:11 19.50936 103.36851 33906 ft 450 kts 290°
2026-04-26 14:11 19.53077 103.30549 33910 ft 450 kts 289°
2026-04-26 14:12 19.55187 103.24330 33883 ft 450 kts 289°
2026-04-26 14:12 19.57306 103.18072 33864 ft 450 kts 289°
2026-04-26 14:13 19.60465 103.08730 33919 ft 450 kts 289°
2026-04-26 14:14 19.62577 103.02473 33967 ft 450 kts 289°
2026-04-26 14:14 19.64689 102.96210 33975 ft 449 kts 290°
2026-04-26 14:15 19.66791 102.89967 33967 ft 449 kts 290°
2026-04-26 14:15 19.68898 102.83704 33963 ft 449 kts 290°
2026-04-26 14:16 19.71008 102.77422 33958 ft 449 kts 290°
2026-04-26 14:16 19.73122 102.71117 33962 ft 449 kts 290°
2026-04-26 14:17 19.75216 102.64867 33963 ft 449 kts 290°
2026-04-26 14:17 19.77310 102.58605 33919 ft 449 kts 290°
2026-04-26 14:18 19.79398 102.52357 33865 ft 449 kts 290°
2026-04-26 14:18 19.81495 102.46073 33870 ft 448 kts 290°
2026-04-26 14:19 19.83600 102.39756 33952 ft 451 kts 290°
2026-04-26 14:19 19.85703 102.33438 33924 ft 450 kts 290°
2026-04-26 14:20 19.87789 102.27157 33899 ft 450 kts 290°
2026-04-26 14:20 19.89869 102.20892 33882 ft 450 kts 290°
2026-04-26 14:21 19.92367 102.14796 33890 ft 449 kts 299°
2026-04-26 14:21 19.95487 102.09008 33914 ft 449 kts 300°
2026-04-26 14:22 19.98655 102.03136 33956 ft 449 kts 300°
2026-04-26 14:22 20.01756 101.97374 33990 ft 449 kts 300°
2026-04-26 14:23 20.04845 101.91627 33972 ft 449 kts 300°
2026-04-26 14:23 20.07965 101.85812 33949 ft 449 kts 300°
2026-04-26 14:24 20.11068 101.80023 33942 ft 449 kts 300°
2026-04-26 14:24 20.14176 101.74217 33958 ft 449 kts 300°
2026-04-26 14:25 20.17278 101.68418 33962 ft 448 kts 300°
2026-04-26 14:25 20.20353 101.62663 33957 ft 447 kts 300°
2026-04-26 14:26 20.23441 101.56877 33984 ft 447 kts 299°
2026-04-26 14:26 20.26516 101.51110 33989 ft 446 kts 299°
2026-04-26 14:27 20.29566 101.45385 33982 ft 445 kts 299°
2026-04-26 14:27 20.32614 101.39656 33972 ft 443 kts 299°
2026-04-26 14:28 20.35665 101.33917 33953 ft 442 kts 298°
2026-04-26 14:28 20.38724 101.28156 33932 ft 440 kts 298°
2026-04-26 14:29 20.41732 101.22486 33922 ft 439 kts 298°
2026-04-26 14:29 20.44744 101.16804 33926 ft 438 kts 298°
2026-04-26 14:30 20.47737 101.11151 33934 ft 437 kts 298°
2026-04-26 14:30 20.50723 101.05505 33941 ft 436 kts 298°
2026-04-26 14:31 20.53704 100.99864 33950 ft 435 kts 298°
2026-04-26 14:31 20.56663 100.94259 33944 ft 433 kts 297°
2026-04-26 14:32 20.59632 100.88628 33934 ft 432 kts 297°
2026-04-26 14:32 20.62575 100.83043 33930 ft 431 kts 297°
2026-04-26 14:33 20.65520 100.77446 33938 ft 431 kts 297°
2026-04-26 14:33 20.68455 100.71866 33954 ft 430 kts 297°
2026-04-26 14:34 20.71389 100.66278 33960 ft 429 kts 297°
2026-04-26 14:34 20.74307 100.60719 33952 ft 428 kts 297°
2026-04-26 14:35 20.77215 100.55171 33939 ft 428 kts 297°
2026-04-26 14:35 20.80127 100.49609 33937 ft 427 kts 297°
2026-04-26 14:36 20.82442 100.43749 33936 ft 424 kts 286°
2026-04-26 14:36 20.84106 100.37682 33926 ft 423 kts 286°
2026-04-26 14:37 20.85761 100.31602 33929 ft 423 kts 285°
2026-04-26 14:37 20.87398 100.25571 33917 ft 422 kts 285°
2026-04-26 14:38 20.89036 100.19528 33915 ft 422 kts 285°
2026-04-26 14:38 20.90677 100.13461 33922 ft 421 kts 285°
2026-04-26 14:39 20.92306 100.07430 33925 ft 421 kts 285°
2026-04-26 14:39 20.93925 100.01424 33925 ft 420 kts 285°
2026-04-26 14:40 20.95551 99.95385 33918 ft 420 kts 285°
2026-04-26 14:40 20.97158 99.89406 33912 ft 420 kts 285°
2026-04-26 14:41 20.98782 99.83355 33924 ft 418 kts 285°
2026-04-26 14:41 21.00384 99.77378 33941 ft 416 kts 285°
2026-04-26 14:42 21.01985 99.71394 33958 ft 416 kts 285°
2026-04-26 14:42 21.03582 99.65417 33969 ft 415 kts 285°
2026-04-26 14:43 21.05177 99.59437 33978 ft 415 kts 285°
2026-04-26 14:43 21.06775 99.53438 33987 ft 415 kts 285°
2026-04-26 14:44 21.08363 99.47468 33991 ft 415 kts 285°
2026-04-26 14:44 21.09945 99.41507 33972 ft 415 kts 285°
2026-04-26 14:45 21.11533 99.35519 33957 ft 415 kts 285°
2026-04-26 14:45 21.13121 99.29520 33961 ft 415 kts 284°
2026-04-26 14:46 21.14701 99.23540 33945 ft 415 kts 284°
2026-04-26 14:46 21.16269 99.17599 33933 ft 414 kts 284°
2026-04-26 14:47 21.17834 99.11660 33928 ft 414 kts 284°
2026-04-26 14:47 21.19405 99.05688 33924 ft 414 kts 284°
2026-04-26 14:48 21.20964 98.99754 33921 ft 414 kts 284°
2026-04-26 14:48 21.22525 98.93804 33921 ft 414 kts 284°
2026-04-26 14:49 21.24082 98.87859 33927 ft 414 kts 284°
2026-04-26 14:49 21.25641 98.81895 33935 ft 414 kts 284°
2026-04-26 14:50 21.27186 98.75977 33927 ft 414 kts 284°
2026-04-26 14:50 21.28742 98.70009 33905 ft 414 kts 284°
2026-04-26 14:51 21.30303 98.64010 33876 ft 414 kts 284°
2026-04-26 14:51 21.31855 98.58038 33853 ft 414 kts 284°
2026-04-26 14:52 21.33412 98.52037 33843 ft 414 kts 284°
2026-04-26 14:52 21.34950 98.46099 33845 ft 413 kts 284°
2026-04-26 14:53 21.36490 98.40144 33857 ft 413 kts 284°
2026-04-26 14:53 21.38025 98.34197 33873 ft 412 kts 284°
2026-04-26 14:54 21.39550 98.28283 33887 ft 412 kts 284°
2026-04-26 14:54 21.41081 98.22335 33885 ft 412 kts 284°
2026-04-26 14:55 21.42603 98.16413 33892 ft 411 kts 284°
2026-04-26 14:55 21.44126 98.10477 33902 ft 411 kts 284°
2026-04-26 14:56 21.45646 98.04545 33881 ft 411 kts 284°
2026-04-26 14:56 21.47160 97.98628 33821 ft 410 kts 284°
2026-04-26 14:57 21.48672 97.92704 33811 ft 410 kts 284°
2026-04-26 14:57 21.50174 97.86816 33817 ft 410 kts 284°
2026-04-26 14:58 21.51680 97.80899 33833 ft 410 kts 284°
2026-04-26 14:58 21.53174 97.75022 33848 ft 409 kts 284°
2026-04-26 14:59 21.54678 97.69093 33818 ft 410 kts 284°
2026-04-26 14:59 21.56174 97.63191 33759 ft 409 kts 284°
2026-04-26 15:00 21.57662 97.57309 33710 ft 410 kts 284°
2026-04-26 15:00 21.59148 97.51421 33669 ft 410 kts 284°
2026-04-26 15:01 21.60640 97.45507 33683 ft 409 kts 284°
2026-04-26 15:01 21.62142 97.39538 33763 ft 410 kts 284°
2026-04-26 15:02 21.63633 97.33607 33828 ft 410 kts 284°
2026-04-26 15:02 21.65114 97.27703 33815 ft 410 kts 284°
2026-04-26 15:03 21.66596 97.21788 33641 ft 410 kts 284°
2026-04-26 15:03 21.68079 97.15861 33440 ft 409 kts 284°
2026-04-26 15:04 21.69546 97.09985 33448 ft 411 kts 284°
2026-04-26 15:04 21.71027 97.04045 33508 ft 411 kts 284°
2026-04-26 15:05 21.72503 96.98114 33543 ft 410 kts 284°
2026-04-26 15:05 21.73972 96.92203 33475 ft 410 kts 284°
2026-04-26 15:06 21.75436 96.86304 33379 ft 409 kts 284°
2026-04-26 15:06 21.76896 96.80406 33318 ft 408 kts 284°
2026-04-26 15:07 21.79081 96.71567 33381 ft 408 kts 283°
2026-04-26 15:07 21.79813 96.68602 33531 ft 411 kts 283°
2026-04-26 15:07 21.80548 96.65620 33636 ft 411 kts 283°
2026-04-26 15:08 21.82005 96.59701 33751 ft 410 kts 283°
2026-04-26 15:08 21.83455 96.53806 33805 ft 409 kts 283°
2026-04-26 15:09 21.84914 96.47862 33815 ft 407 kts 283°
2026-04-26 15:09 21.86357 96.41973 33784 ft 406 kts 283°
2026-04-26 15:10 21.87568 96.37024 33777 ft 406 kts 283°
2026-04-26 15:10 21.89250 96.30135 33798 ft 405 kts 283°
2026-04-26 15:11 21.90679 96.24277 33805 ft 405 kts 283°
2026-04-26 15:11 21.92105 96.18419 33801 ft 405 kts 283°
2026-04-26 15:12 21.93391 96.12528 33787 ft 404 kts 277°
2026-04-26 15:12 21.93970 96.06522 33773 ft 403 kts 275°
2026-04-26 15:13 21.94505 96.00543 33761 ft 403 kts 275°
2026-04-26 15:13 21.95031 95.94566 33756 ft 403 kts 275°
2026-04-26 15:14 21.95555 95.88551 33755 ft 403 kts 275°
2026-04-26 15:14 21.96072 95.82571 33756 ft 403 kts 275°
2026-04-26 15:15 21.96588 95.76569 33756 ft 403 kts 275°
2026-04-26 15:15 21.97101 95.70576 33755 ft 403 kts 275°
2026-04-26 15:16 21.97611 95.64590 33754 ft 404 kts 275°
2026-04-26 15:16 21.98123 95.58558 33752 ft 404 kts 275°
2026-04-26 15:17 21.98543 95.53576 33751 ft 404 kts 275°
2026-04-26 15:17 21.99135 95.46532 33750 ft 404 kts 275°
2026-04-26 15:18 21.99638 95.40529 33750 ft 405 kts 275°
2026-04-26 15:18 22.00141 95.34486 33752 ft 405 kts 275°
2026-04-26 15:19 22.00641 95.28454 33772 ft 406 kts 275°
2026-04-26 15:19 22.01142 95.22385 33778 ft 409 kts 275°
2026-04-26 15:20 22.01648 95.16228 33780 ft 413 kts 275°
2026-04-26 15:20 22.02152 95.10074 33777 ft 414 kts 275°
2026-04-26 15:21 22.02659 95.03850 33781 ft 414 kts 275°
2026-04-26 15:21 22.03159 94.97681 33785 ft 415 kts 275°
2026-04-26 15:22 22.03660 94.91461 33788 ft 415 kts 275°
2026-04-26 15:22 22.04158 94.85252 33787 ft 416 kts 275°
2026-04-26 15:23 22.04654 94.79048 33783 ft 415 kts 275°
2026-04-26 15:23 22.05145 94.72872 33779 ft 415 kts 275°
2026-04-26 15:24 22.05635 94.66682 33780 ft 415 kts 275°
2026-04-26 15:24 22.06127 94.60442 33783 ft 414 kts 275°
2026-04-26 15:25 22.06527 94.55327 33786 ft 414 kts 275°
2026-04-26 15:25 22.07088 94.48150 33793 ft 413 kts 275°
2026-04-26 15:26 22.07566 94.41982 33802 ft 412 kts 275°
2026-04-26 15:26 22.08041 94.35834 33812 ft 411 kts 275°
2026-04-26 15:27 22.08513 94.29696 33820 ft 410 kts 275°
2026-04-26 15:27 22.08979 94.23597 33770 ft 409 kts 275°
2026-04-26 15:28 22.09443 94.17504 33800 ft 408 kts 275°
2026-04-26 15:28 22.09901 94.11446 33837 ft 407 kts 275°
2026-04-26 15:29 22.10358 94.05389 33837 ft 406 kts 275°
2026-04-26 15:30 22.11262 93.93291 33853 ft 405 kts 275°
2026-04-26 15:30 22.11710 93.87266 33827 ft 405 kts 275°
2026-04-26 15:31 22.12380 93.78185 33611 ft 405 kts 275°
2026-04-26 15:31 22.12605 93.75111 33484 ft 406 kts 275°
2026-04-26 15:32 22.12975 93.70054 33168 ft 407 kts 275°
2026-04-26 15:32 22.13271 93.65990 33044 ft 406 kts 275°
2026-04-26 15:32 22.13491 93.62958 32987 ft 409 kts 275°
2026-04-26 15:33 22.13934 93.56844 32894 ft 411 kts 275°
2026-04-26 15:33 22.14377 93.50678 32836 ft 413 kts 275°
2026-04-26 15:34 22.14819 93.44509 32803 ft 413 kts 275°
2026-04-26 15:34 22.15259 93.38330 32821 ft 415 kts 275°
2026-04-26 15:35 22.15699 93.32125 32858 ft 417 kts 275°
2026-04-26 15:35 22.16137 93.25900 32885 ft 418 kts 275°
2026-04-26 15:36 22.16572 93.19698 32925 ft 418 kts 275°
2026-04-26 15:36 22.17009 93.13429 32985 ft 418 kts 275°
2026-04-26 15:37 22.17443 93.07166 33083 ft 419 kts 274°
2026-04-26 15:37 22.17874 93.00912 33219 ft 419 kts 274°
2026-04-26 15:38 22.18089 92.97777 33372 ft 417 kts 274°
2026-04-26 15:38 22.18304 92.94642 33573 ft 419 kts 274°
2026-04-26 15:38 22.18517 92.91514 33743 ft 419 kts 274°
2026-04-26 15:38 22.18728 92.88414 33865 ft 419 kts 274°
2026-04-26 15:39 22.19158 92.82066 33971 ft 419 kts 274°
2026-04-26 15:39 22.19512 92.76811 33942 ft 418 kts 274°
2026-04-26 15:40 22.20006 92.69440 33923 ft 417 kts 274°
2026-04-26 15:40 22.20424 92.63109 33898 ft 417 kts 274°
2026-04-26 15:41 22.20806 92.56853 33899 ft 417 kts 274°
2026-04-26 15:41 22.21188 92.50576 33905 ft 416 kts 274°
2026-04-26 15:42 22.21565 92.44353 33896 ft 416 kts 274°
2026-04-26 15:42 22.21938 92.38147 33886 ft 416 kts 274°
2026-04-26 15:43 22.22310 92.31941 33898 ft 416 kts 274°
2026-04-26 15:44 22.22920 92.22545 33894 ft 415 kts 274°
2026-04-26 15:44 22.23600 92.13274 33892 ft 414 kts 274°
2026-04-26 15:45 22.24266 92.04033 33908 ft 413 kts 274°
2026-04-26 15:46 22.24929 91.94743 33905 ft 410 kts 274°
2026-04-26 15:46 22.25290 91.89629 33884 ft 410 kts 274°
2026-04-26 15:47 22.26106 91.79401 33888 ft 411 kts 277°
2026-04-26 15:48 22.26844 91.73286 33886 ft 411 kts 277°
2026-04-26 15:48 22.27563 91.67200 33886 ft 412 kts 277°
2026-04-26 15:49 22.28281 91.61039 33885 ft 412 kts 277°
2026-04-26 15:49 22.28988 91.54919 33883 ft 413 kts 277°
2026-04-26 15:50 22.29695 91.48764 33881 ft 414 kts 277°
2026-04-26 15:50 22.30402 91.42568 33879 ft 415 kts 277°
2026-04-26 15:51 22.31115 91.36368 33877 ft 415 kts 277°
2026-04-26 15:51 22.31888 91.30175 33893 ft 416 kts 277°
2026-04-26 15:52 22.32662 91.23962 33892 ft 417 kts 277°
2026-04-26 15:52 22.33430 91.17754 33889 ft 418 kts 277°
2026-04-26 15:53 22.34203 91.11485 33885 ft 418 kts 277°
2026-04-26 15:53 22.34962 91.05296 33880 ft 418 kts 277°
2026-04-26 15:54 22.35727 90.99047 33876 ft 419 kts 277°
2026-04-26 15:54 22.36486 90.92819 33873 ft 419 kts 277°
2026-04-26 15:55 22.37245 90.86571 33870 ft 419 kts 277°
2026-04-26 15:55 22.38001 90.80328 33866 ft 419 kts 277°
2026-04-26 15:56 22.38755 90.74081 33863 ft 418 kts 277°
2026-04-26 15:56 22.39503 90.67868 33860 ft 418 kts 277°
2026-04-26 15:57 22.40247 90.61655 33857 ft 418 kts 277°
2026-04-26 15:57 22.40991 90.55431 33854 ft 417 kts 277°
2026-04-26 15:58 22.41734 90.49197 33851 ft 417 kts 277°
2026-04-26 15:58 22.42468 90.43014 33848 ft 416 kts 277°
2026-04-26 15:59 22.43199 90.36835 33845 ft 416 kts 277°
2026-04-26 15:59 22.43926 90.30666 33858 ft 415 kts 276°
2026-04-26 16:00 22.44662 90.24411 33852 ft 415 kts 276°
2026-04-26 16:00 22.45384 90.18250 33846 ft 414 kts 276°
2026-04-26 16:01 22.46104 90.12075 33842 ft 414 kts 276°
2026-04-26 16:01 22.46820 90.05917 33838 ft 414 kts 276°
2026-04-26 16:02 22.47537 89.99738 33834 ft 414 kts 276°
2026-04-26 16:02 22.48248 89.93589 33831 ft 414 kts 276°
2026-04-26 16:03 22.48957 89.87435 33827 ft 414 kts 276°
2026-04-26 16:03 22.49664 89.81274 33824 ft 414 kts 276°
2026-04-26 16:04 22.50368 89.75125 33821 ft 414 kts 276°
2026-04-26 16:04 22.51072 89.68941 33817 ft 414 kts 276°
2026-04-26 16:05 22.51772 89.62780 33814 ft 414 kts 276°
2026-04-26 16:05 22.52477 89.56551 33810 ft 415 kts 276°
2026-04-26 16:06 22.53178 89.50337 33807 ft 415 kts 276°
2026-04-26 16:06 22.53873 89.44157 33806 ft 416 kts 276°
2026-04-26 16:07 22.54568 89.37953 33810 ft 417 kts 276°
2026-04-26 16:07 22.55265 89.31712 33829 ft 418 kts 276°
2026-04-26 16:08 22.55963 89.25440 33828 ft 419 kts 276°
2026-04-26 16:08 22.56658 89.19169 33825 ft 420 kts 276°
2026-04-26 16:09 22.57356 89.12845 33823 ft 420 kts 276°
2026-04-26 16:09 22.58052 89.06521 33819 ft 421 kts 276°
2026-04-26 16:10 22.58749 89.00170 33816 ft 421 kts 276°
2026-04-26 16:10 22.59437 88.93865 33814 ft 421 kts 276°
2026-04-26 16:11 22.60439 88.87616 33812 ft 422 kts 280°
2026-04-26 16:11 22.61517 88.81396 33810 ft 421 kts 280°
2026-04-26 16:12 22.62576 88.75177 33808 ft 421 kts 279°
2026-04-26 16:12 22.64153 88.65807 33805 ft 421 kts 279°
2026-04-26 16:13 22.65194 88.59576 33804 ft 421 kts 279°
2026-04-26 16:13 22.66233 88.53338 33802 ft 421 kts 279°
2026-04-26 16:14 22.67270 88.47088 33801 ft 420 kts 279°
2026-04-26 16:15 22.68133 88.37673 33799 ft 420 kts 274°
2026-04-26 16:15 22.68550 88.31375 33813 ft 420 kts 274°
2026-04-26 16:16 22.69177 88.21868 33814 ft 419 kts 274°
2026-04-26 16:16 22.69586 88.15627 33813 ft 419 kts 274°
2026-04-26 16:17 22.69995 88.09340 33810 ft 419 kts 274°
2026-04-26 16:17 22.70404 88.03033 33807 ft 419 kts 274°
2026-04-26 16:18 22.71008 87.93639 33801 ft 418 kts 274°
2026-04-26 16:19 22.71609 87.84212 33797 ft 418 kts 274°
2026-04-26 16:20 22.72207 87.74746 33792 ft 419 kts 274°
2026-04-26 16:20 22.72797 87.65311 33781 ft 419 kts 274°
2026-04-26 16:21 22.73192 87.58952 33773 ft 419 kts 274°
2026-04-26 16:21 22.73582 87.52618 33768 ft 420 kts 274°
2026-04-26 16:22 22.73971 87.46274 33764 ft 421 kts 274°
2026-04-26 16:22 22.74360 87.39883 33762 ft 421 kts 274°
2026-04-26 16:23 22.74742 87.33575 33768 ft 422 kts 274°
2026-04-26 16:23 22.75123 87.27228 33774 ft 422 kts 274°
2026-04-26 16:24 22.75500 87.20901 33772 ft 423 kts 274°
2026-04-26 16:24 22.75879 87.14501 33758 ft 423 kts 274°
2026-04-26 16:25 22.76253 87.08146 33742 ft 424 kts 274°
2026-04-26 16:25 22.76625 87.01799 33732 ft 424 kts 274°
2026-04-26 16:26 22.76996 86.95408 33726 ft 425 kts 274°
2026-04-26 16:26 22.77364 86.89017 33726 ft 425 kts 274°
2026-04-26 16:27 22.77730 86.82639 33727 ft 425 kts 274°
2026-04-26 16:27 22.78092 86.76263 33728 ft 425 kts 274°
2026-04-26 16:28 22.78451 86.69904 33727 ft 425 kts 274°
2026-04-26 16:28 22.78810 86.63516 33719 ft 425 kts 274°
2026-04-26 16:29 22.79166 86.57121 33711 ft 425 kts 274°
2026-04-26 16:29 22.79517 86.50755 33708 ft 425 kts 274°
2026-04-26 16:30 22.79868 86.44370 33703 ft 424 kts 274°
2026-04-26 16:30 22.80215 86.37991 33693 ft 424 kts 274°
2026-04-26 16:31 22.80560 86.31609 33698 ft 425 kts 274°
2026-04-26 16:31 22.80903 86.25220 33693 ft 424 kts 274°
2026-04-26 16:32 22.81185 86.19923 33690 ft 425 kts 274°
2026-04-26 16:32 22.81696 86.12456 33687 ft 424 kts 275°
2026-04-26 16:33 22.82238 86.06111 33684 ft 423 kts 275°
2026-04-26 16:33 22.82766 85.99804 33683 ft 423 kts 275°
2026-04-26 16:34 22.83291 85.93446 33684 ft 423 kts 275°
2026-04-26 16:34 22.83812 85.87100 33691 ft 423 kts 275°
2026-04-26 16:35 22.84327 85.80757 33700 ft 422 kts 275°
2026-04-26 16:35 22.84839 85.74418 33713 ft 423 kts 275°
2026-04-26 16:36 22.85350 85.68057 33732 ft 423 kts 275°
2026-04-26 16:36 22.85858 85.61705 33755 ft 423 kts 275°
2026-04-26 16:37 22.86362 85.55366 33778 ft 423 kts 275°
2026-04-26 16:37 22.86866 85.48996 33786 ft 424 kts 275°
2026-04-26 16:38 22.87365 85.42662 33786 ft 424 kts 275°
2026-04-26 16:38 22.87862 85.36312 33766 ft 424 kts 275°
2026-04-26 16:39 22.88362 85.29898 33761 ft 424 kts 275°
2026-04-26 16:39 22.88855 85.23541 33771 ft 424 kts 275°
2026-04-26 16:40 22.89349 85.17142 33785 ft 424 kts 275°
2026-04-26 16:40 22.89838 85.10801 33793 ft 424 kts 275°
2026-04-26 16:41 22.90332 85.04422 33799 ft 424 kts 275°
2026-04-26 16:41 22.90823 84.98061 33802 ft 424 kts 275°
2026-04-26 16:42 22.91310 84.91711 33803 ft 424 kts 275°
2026-04-26 16:42 22.91798 84.85312 33803 ft 424 kts 275°
2026-04-26 16:43 22.92282 84.78933 33802 ft 424 kts 275°
2026-04-26 16:43 22.92764 84.72551 33800 ft 424 kts 275°
2026-04-26 16:44 22.93246 84.66129 33806 ft 424 kts 275°
2026-04-26 16:44 22.93721 84.59758 33818 ft 423 kts 275°
2026-04-26 16:45 22.94193 84.53408 33782 ft 423 kts 275°
2026-04-26 16:45 22.94664 84.47027 33717 ft 423 kts 275°
2026-04-26 16:46 22.95132 84.40662 33665 ft 423 kts 275°
2026-04-26 16:46 22.95599 84.34257 33630 ft 423 kts 275°
2026-04-26 16:47 22.96064 84.27856 33606 ft 423 kts 275°
2026-04-26 16:47 22.96522 84.21513 33565 ft 423 kts 275°
2026-04-26 16:48 22.96980 84.15141 33532 ft 423 kts 275°
2026-04-26 16:48 22.97385 84.08784 33500 ft 423 kts 274°
2026-04-26 16:49 22.97724 84.02382 33469 ft 424 kts 274°
2026-04-26 16:49 22.98066 83.95981 33440 ft 424 kts 274°
2026-04-26 16:50 22.98406 83.89603 33428 ft 424 kts 274°
2026-04-26 16:50 22.98745 83.83225 33411 ft 423 kts 274°
2026-04-26 16:51 22.99081 83.76856 33387 ft 423 kts 274°
2026-04-26 16:51 22.99417 83.70458 33409 ft 423 kts 274°
2026-04-26 16:52 22.99695 83.65128 33488 ft 424 kts 274°
2026-04-26 16:52 23.00082 83.57637 33584 ft 424 kts 274°
2026-04-26 16:53 23.00408 83.51277 33656 ft 424 kts 274°
2026-04-26 16:53 23.00734 83.44874 33697 ft 424 kts 274°
2026-04-26 16:54 23.01059 83.38439 33691 ft 423 kts 273°
2026-04-26 16:54 23.01383 83.31960 33730 ft 427 kts 273°
2026-04-26 16:55 23.01699 83.25590 33753 ft 422 kts 274°
2026-04-26 16:55 23.02017 83.19124 33773 ft 430 kts 273°
2026-04-26 16:56 23.02484 83.09554 33753 ft 425 kts 273°
2026-04-26 16:57 23.02796 83.03109 33735 ft 424 kts 273°
2026-04-26 16:57 23.03258 82.93439 33769 ft 424 kts 273°
2026-04-26 16:58 23.03511 82.88109 33817 ft 426 kts 273°
2026-04-26 16:59 23.04011 82.77392 33811 ft 424 kts 273°
2026-04-26 17:00 23.04602 82.64552 33787 ft 425 kts 273°
2026-04-26 17:00 23.04280 82.54948 33772 ft 427 kts 257°
2026-04-26 17:01 23.02165 82.48920 33773 ft 431 kts 250°
2026-04-26 17:01 23.00377 82.42775 33768 ft 427 kts 264°
2026-04-26 17:02 23.00442 82.36339 33764 ft 426 kts 275°
2026-04-26 17:02 23.01045 82.29966 33771 ft 426 kts 275°
2026-04-26 17:03 23.01965 82.23582 33772 ft 427 kts 285°
2026-04-26 17:03 23.04145 82.17540 33777 ft 429 kts 290°
2026-04-26 17:04 23.06449 82.11554 33781 ft 430 kts 292°
2026-04-26 17:04 23.09557 82.05976 33794 ft 435 kts 300°
2026-04-26 17:05 23.12951 82.00458 33803 ft 435 kts 300°
2026-04-26 17:05 23.16320 81.94963 33808 ft 435 kts 300°
2026-04-26 17:06 23.19684 81.89454 33815 ft 436 kts 300°
2026-04-26 17:06 23.23062 81.83905 33817 ft 438 kts 300°
2026-04-26 17:07 23.26462 81.78303 33810 ft 440 kts 300°
2026-04-26 17:07 23.29846 81.72712 33802 ft 440 kts 300°
2026-04-26 17:08 23.33233 81.67102 33799 ft 441 kts 300°
2026-04-26 17:08 23.36654 81.61422 33800 ft 441 kts 300°
2026-04-26 17:09 23.39465 81.56741 33801 ft 441 kts 300°
2026-04-26 17:09 23.43378 81.50214 33798 ft 442 kts 300°
2026-04-26 17:10 23.45808 81.44104 33794 ft 437 kts 282°
2026-04-26 17:10 23.46173 81.37465 33790 ft 437 kts 264°
2026-04-26 17:11 23.44423 81.31068 33796 ft 442 kts 245°
2026-04-26 17:11 23.41347 81.25214 33799 ft 443 kts 243°
2026-04-26 17:12 23.36640 81.16482 33807 ft 442 kts 243°
2026-04-26 17:13 23.31948 81.07793 33820 ft 441 kts 242°
2026-04-26 17:14 23.27292 80.99187 33827 ft 440 kts 242°
2026-04-26 17:14 23.22628 80.90580 33840 ft 439 kts 242°
2026-04-26 17:15 23.17962 80.81966 33840 ft 438 kts 244°
2026-04-26 17:16 23.15783 80.75818 33840 ft 434 kts 258°
2026-04-26 17:16 23.15241 80.69331 33843 ft 433 kts 272°
2026-04-26 17:17 23.15589 80.62804 33853 ft 432 kts 273°
2026-04-26 17:17 23.15949 80.56259 33857 ft 433 kts 273°
2026-04-26 17:18 23.16306 80.49670 33860 ft 434 kts 273°
2026-04-26 17:18 23.16656 80.43132 33857 ft 433 kts 273°
2026-04-26 17:19 23.17176 80.33305 33854 ft 434 kts 272°
2026-04-26 17:19 23.17521 80.26699 33852 ft 434 kts 272°
2026-04-26 17:20 23.17806 80.21206 33846 ft 435 kts 272°
2026-04-26 17:20 23.18203 80.13527 33835 ft 435 kts 272°
2026-04-26 17:21 23.18540 80.06918 33824 ft 436 kts 272°
2026-04-26 17:21 23.18843 80.00337 33814 ft 436 kts 272°
2026-04-26 17:22 23.19131 79.93688 33809 ft 437 kts 272°
2026-04-26 17:22 23.19415 79.87109 33807 ft 438 kts 272°
2026-04-26 17:23 23.19699 79.80476 33806 ft 438 kts 272°
2026-04-26 17:23 23.19982 79.73816 33804 ft 438 kts 272°
2026-04-26 17:24 23.20260 79.67211 33801 ft 438 kts 272°
2026-04-26 17:24 23.20535 79.60622 33798 ft 438 kts 272°
2026-04-26 17:25 23.20776 79.53992 33796 ft 438 kts 271°
2026-04-26 17:25 23.20887 79.47381 33816 ft 444 kts 271°
2026-04-26 17:26 23.20945 79.43988 34174 ft 445 kts 271°
2026-04-26 17:26 23.21001 79.40683 34795 ft 439 kts 271°
2026-04-26 17:26 23.21058 79.37376 35362 ft 434 kts 271°
2026-04-26 17:26 23.21115 79.34066 35713 ft 435 kts 270°
2026-04-26 17:27 23.21171 79.30789 35870 ft 439 kts 270°
2026-04-26 17:27 23.21228 79.27471 35902 ft 436 kts 270°
2026-04-26 17:27 23.21338 79.20946 35911 ft 427 kts 270°
2026-04-26 17:28 23.21445 79.14465 35813 ft 428 kts 270°
2026-04-26 17:28 23.21549 79.07991 35804 ft 429 kts 270°
2026-04-26 17:29 23.21632 79.02715 35810 ft 429 kts 270°
2026-04-26 17:29 23.21748 78.95122 35808 ft 429 kts 270°
2026-04-26 17:30 23.21845 78.88614 35814 ft 430 kts 270°
2026-04-26 17:30 23.21940 78.82127 35818 ft 430 kts 270°
2026-04-26 17:31 23.22032 78.75604 35821 ft 431 kts 270°
2026-04-26 17:31 23.22248 78.69111 35820 ft 432 kts 272°
2026-04-26 17:32 23.22587 78.62579 35817 ft 432 kts 272°
2026-04-26 17:32 23.22912 78.56068 35816 ft 437 kts 272°
2026-04-26 17:33 23.23239 78.49315 35804 ft 453 kts 272°
2026-04-26 17:34 23.23735 78.38892 35782 ft 469 kts 272°
2026-04-26 17:34 23.24070 78.31756 35796 ft 471 kts 272°
2026-04-26 17:35 23.24398 78.24686 35804 ft 472 kts 272°
2026-04-26 17:35 23.24726 78.17519 35806 ft 472 kts 272°
2026-04-26 17:36 23.25048 78.10432 35804 ft 473 kts 272°
2026-04-26 17:36 23.25370 78.03271 35802 ft 473 kts 272°
2026-04-26 17:37 23.25686 77.96159 35800 ft 474 kts 272°
2026-04-26 17:37 23.26001 77.88993 35802 ft 475 kts 272°
2026-04-26 17:38 23.26467 77.78264 35807 ft 476 kts 272°
2026-04-26 17:38 23.26776 77.71059 35809 ft 476 kts 272°
2026-04-26 17:39 23.27080 77.63888 35810 ft 476 kts 272°
2026-04-26 17:39 23.27380 77.56727 35811 ft 476 kts 272°
2026-04-26 17:40 23.27629 77.50729 35812 ft 476 kts 272°
2026-04-26 17:40 23.27974 77.42351 35816 ft 476 kts 272°
2026-04-26 17:41 23.28262 77.35200 35818 ft 475 kts 271°
2026-04-26 17:41 23.27934 77.28034 35835 ft 474 kts 265°
2026-04-26 17:42 23.27427 77.20868 35837 ft 474 kts 265°
2026-04-26 17:42 23.26919 77.13738 35833 ft 474 kts 265°
2026-04-26 17:43 23.26405 77.06557 35829 ft 474 kts 265°
2026-04-26 17:43 23.25894 76.99456 35825 ft 474 kts 265°
2026-04-26 17:44 23.25380 76.92361 35824 ft 474 kts 265°
2026-04-26 17:44 23.24856 76.85172 35822 ft 473 kts 265°
2026-04-26 17:45 23.24332 76.78028 35823 ft 474 kts 265°
2026-04-26 17:45 23.23808 76.70931 35824 ft 474 kts 265°
2026-04-26 17:46 23.23279 76.63805 35828 ft 475 kts 265°
2026-04-26 17:46 23.22741 76.56594 35833 ft 475 kts 265°
2026-04-26 17:47 23.22292 76.50624 35838 ft 475 kts 265°
2026-04-26 17:47 23.21655 76.42192 35843 ft 475 kts 265°
2026-04-26 17:48 23.21110 76.35036 35842 ft 476 kts 265°
2026-04-26 17:48 23.20562 76.27866 35850 ft 476 kts 264°
2026-04-26 17:49 23.20008 76.20674 35851 ft 476 kts 264°
2026-04-26 17:49 23.19454 76.13525 35858 ft 476 kts 264°
2026-04-26 17:50 23.18893 76.06328 35864 ft 477 kts 264°
2026-04-26 17:50 23.18333 75.99166 35869 ft 477 kts 265°
2026-04-26 17:51 23.18207 75.91925 35875 ft 479 kts 269°
2026-04-26 17:51 23.18162 75.84629 35877 ft 480 kts 268°
2026-04-26 17:52 23.18095 75.77403 35877 ft 480 kts 268°
2026-04-26 17:52 23.18013 75.70103 35878 ft 480 kts 268°
2026-04-26 17:53 23.17923 75.62834 35877 ft 480 kts 268°
2026-04-26 17:54 23.17777 75.51923 35873 ft 480 kts 268°
2026-04-26 17:54 23.17673 75.44600 35872 ft 480 kts 268°
2026-04-26 17:55 23.17565 75.37313 35874 ft 480 kts 268°
2026-04-26 17:55 23.17453 75.30019 35883 ft 480 kts 268°
2026-04-26 17:56 23.17339 75.22791 35885 ft 480 kts 268°
2026-04-26 17:57 23.17099 75.08278 35860 ft 480 kts 268°
2026-04-26 17:57 23.16975 75.01067 35847 ft 481 kts 268°
2026-04-26 17:58 23.16716 74.86546 35824 ft 481 kts 268°
2026-04-26 17:59 23.16510 74.75538 35809 ft 482 kts 268°
2026-04-26 17:59 23.16370 74.68275 35803 ft 483 kts 268°
2026-04-26 18:00 23.16226 74.60966 35802 ft 483 kts 268°
2026-04-26 18:00 23.16078 74.53634 35800 ft 484 kts 268°
2026-04-26 18:01 23.15926 74.46280 35796 ft 484 kts 268°
2026-04-26 18:01 23.15771 74.38964 35780 ft 485 kts 268°
2026-04-26 18:02 23.15635 74.32854 35785 ft 485 kts 266°
2026-04-26 18:02 23.15239 74.24314 35799 ft 485 kts 266°
2026-04-26 18:03 23.14883 74.16948 35828 ft 486 kts 266°
2026-04-26 18:03 23.14530 74.09618 35864 ft 486 kts 266°
2026-04-26 18:04 23.14178 74.02302 35872 ft 486 kts 266°
2026-04-26 18:05 23.13643 73.91287 35854 ft 487 kts 266°
2026-04-26 18:05 23.13283 73.83940 35841 ft 489 kts 266°
2026-04-26 18:06 23.12916 73.76505 35828 ft 490 kts 266°
2026-04-26 18:06 23.12549 73.69153 35817 ft 490 kts 266°
2026-04-26 18:07 23.12177 73.61761 35796 ft 490 kts 266°
2026-04-26 18:07 23.11803 73.54391 35788 ft 489 kts 266°
2026-04-26 18:08 23.11423 73.46967 35802 ft 489 kts 266°
2026-04-26 18:08 23.11040 73.39558 35799 ft 488 kts 266°
2026-04-26 18:09 23.10656 73.32199 35801 ft 488 kts 265°
2026-04-26 18:09 23.10267 73.24830 35805 ft 488 kts 265°
2026-04-26 18:10 23.09878 73.17501 35806 ft 488 kts 265°
2026-04-26 18:10 23.09482 73.10104 35802 ft 489 kts 265°
2026-04-26 18:11 23.09085 73.02741 35796 ft 489 kts 265°
2026-04-26 18:11 23.08681 72.95348 35788 ft 489 kts 265°
2026-04-26 18:12 23.08275 72.87953 35781 ft 489 kts 265°
2026-04-26 18:12 23.07867 72.80594 35780 ft 490 kts 265°
2026-04-26 18:13 23.07454 72.73222 35779 ft 490 kts 265°
2026-04-26 18:13 23.07035 72.65794 35778 ft 491 kts 265°
2026-04-26 18:14 23.06266 72.58469 35778 ft 491 kts 261°
2026-04-26 18:14 23.05239 72.51142 35777 ft 491 kts 261°
2026-04-26 18:15 23.04209 72.43816 35775 ft 491 kts 261°
2026-04-26 18:15 23.03180 72.36506 35774 ft 492 kts 261°
2026-04-26 18:16 23.02140 72.29144 35778 ft 492 kts 260°
2026-04-26 18:16 23.00575 72.18100 35776 ft 492 kts 260°
2026-04-26 18:17 22.99532 72.10771 35775 ft 492 kts 260°
2026-04-26 18:17 22.98482 72.03417 35774 ft 492 kts 260°
2026-04-26 18:18 22.97430 71.96079 35774 ft 492 kts 260°
2026-04-26 18:18 22.96376 71.88741 35775 ft 492 kts 260°
2026-04-26 18:19 22.95322 71.81439 35775 ft 494 kts 260°
2026-04-26 18:19 22.94252 71.74040 35776 ft 495 kts 261°
2026-04-26 18:20 22.93180 71.66660 35776 ft 495 kts 261°
2026-04-26 18:20 22.92284 71.60508 35777 ft 495 kts 261°
2026-04-26 18:21 22.91029 71.51921 35779 ft 495 kts 261°
2026-04-26 18:21 22.89948 71.44546 35780 ft 495 kts 261°
2026-04-26 18:22 22.88861 71.37163 35778 ft 496 kts 261°
2026-04-26 18:22 22.87773 71.29795 35779 ft 496 kts 260°
2026-04-26 18:23 22.86676 71.22387 35780 ft 496 kts 260°
2026-04-26 18:23 22.85583 71.15025 35780 ft 496 kts 260°
2026-04-26 18:24 22.84484 71.07654 35781 ft 496 kts 260°
2026-04-26 18:24 22.83383 71.00289 35781 ft 497 kts 260°
2026-04-26 18:25 22.82274 70.92899 35781 ft 497 kts 260°
2026-04-26 18:25 22.81167 70.85477 35778 ft 498 kts 262°
2026-04-26 18:26 22.81144 70.77998 35786 ft 500 kts 273°
2026-04-26 18:26 22.81636 70.70483 35782 ft 500 kts 273°
2026-04-26 18:27 22.82122 70.62963 35782 ft 500 kts 273°
2026-04-26 18:27 22.82600 70.55451 35781 ft 501 kts 273°
2026-04-26 18:28 22.83071 70.47946 35780 ft 501 kts 273°
2026-04-26 18:28 22.83539 70.40421 35781 ft 501 kts 273°
2026-04-26 18:29 22.84005 70.32858 35793 ft 501 kts 272°
2026-04-26 18:29 22.84465 70.25336 35805 ft 501 kts 272°
2026-04-26 18:30 22.84923 70.17774 35807 ft 502 kts 272°
2026-04-26 18:30 22.85376 70.10232 35809 ft 502 kts 272°
2026-04-26 18:31 22.85827 70.02679 35810 ft 502 kts 272°
2026-04-26 18:31 22.86272 69.95165 35814 ft 502 kts 272°
2026-04-26 18:32 22.86716 69.87591 35816 ft 503 kts 273°
2026-04-26 18:32 22.87155 69.80045 35817 ft 503 kts 273°
2026-04-26 18:33 22.87593 69.72443 35818 ft 504 kts 273°
2026-04-26 18:33 22.88055 69.64899 35819 ft 504 kts 274°
2026-04-26 18:34 22.88550 69.57293 35817 ft 504 kts 274°
2026-04-26 18:34 22.89036 69.49735 35814 ft 504 kts 274°
2026-04-26 18:35 22.89521 69.42136 35816 ft 504 kts 274°
2026-04-26 18:35 22.89997 69.34583 35820 ft 504 kts 273°
2026-04-26 18:36 22.90472 69.26993 35823 ft 504 kts 273°
2026-04-26 18:36 22.90945 69.19369 35822 ft 504 kts 273°
2026-04-26 18:37 22.91414 69.11764 35820 ft 504 kts 273°
2026-04-26 18:37 22.91877 69.04195 35817 ft 504 kts 273°
2026-04-26 18:38 22.92340 68.96555 35815 ft 504 kts 273°
2026-04-26 18:38 22.92797 68.88956 35814 ft 504 kts 273°
2026-04-26 18:39 22.93251 68.81342 35813 ft 504 kts 273°
2026-04-26 18:39 22.93700 68.73749 35811 ft 504 kts 273°
2026-04-26 18:40 22.94145 68.66170 35811 ft 504 kts 273°
2026-04-26 18:40 22.94588 68.58566 35810 ft 504 kts 273°
2026-04-26 18:41 22.95025 68.50993 35809 ft 504 kts 274°
2026-04-26 18:41 22.95460 68.43392 35809 ft 504 kts 274°
2026-04-26 18:42 22.95867 68.35827 35804 ft 504 kts 271°
2026-04-26 18:42 22.95862 68.28204 35811 ft 504 kts 269°
2026-04-26 18:43 22.95834 68.20556 35810 ft 504 kts 270°
2026-04-26 18:43 22.95819 68.12943 35810 ft 504 kts 270°
2026-04-26 18:44 22.95807 68.05315 35809 ft 504 kts 270°
2026-04-26 18:44 22.95797 67.97707 35808 ft 503 kts 270°
2026-04-26 18:45 22.95785 67.90063 35808 ft 503 kts 270°
2026-04-26 18:45 22.95786 67.82472 35809 ft 504 kts 270°
2026-04-26 18:46 22.95805 67.74871 35808 ft 504 kts 270°
2026-04-26 18:46 22.95820 67.67217 35804 ft 505 kts 270°
2026-04-26 18:47 22.95831 67.59557 35803 ft 505 kts 270°
2026-04-26 18:47 22.95838 67.51921 35804 ft 505 kts 270°
2026-04-26 18:48 22.95842 67.44282 35807 ft 505 kts 270°
2026-04-26 18:48 22.95841 67.36655 35811 ft 505 kts 270°
2026-04-26 18:49 22.95837 67.29025 35813 ft 504 kts 270°
2026-04-26 18:49 22.95829 67.21356 35813 ft 504 kts 270°
2026-04-26 18:50 22.95817 67.13772 35813 ft 505 kts 270°
2026-04-26 18:50 22.95802 67.06162 35813 ft 505 kts 270°
2026-04-26 18:51 22.95785 66.98570 35817 ft 505 kts 270°
2026-04-26 18:51 22.95799 66.90970 35821 ft 505 kts 271°
2026-04-26 18:52 22.95852 66.83275 35821 ft 505 kts 271°
2026-04-26 18:52 22.95898 66.75619 35821 ft 505 kts 271°
2026-04-26 18:53 22.95939 66.68015 35821 ft 505 kts 271°
2026-04-26 18:53 22.95976 66.60376 35821 ft 505 kts 271°
2026-04-26 18:54 22.96008 66.52776 35821 ft 506 kts 271°
2026-04-26 18:54 22.96036 66.45133 35821 ft 506 kts 271°
2026-04-26 18:55 22.96061 66.37513 35821 ft 506 kts 271°
2026-04-26 18:55 22.96083 66.29800 35823 ft 506 kts 271°
2026-04-26 18:56 22.96100 66.22136 35823 ft 505 kts 271°
2026-04-26 18:56 22.96114 66.14486 35823 ft 505 kts 271°
2026-04-26 18:57 22.96123 66.08118 35824 ft 505 kts 271°
2026-04-26 18:57 22.96131 65.99215 35823 ft 505 kts 271°
2026-04-26 18:58 22.96133 65.91573 35824 ft 505 kts 271°
2026-04-26 18:58 22.96132 65.83908 35825 ft 506 kts 271°
2026-04-26 18:59 22.96128 65.76250 35825 ft 506 kts 271°
2026-04-26 18:59 22.96119 65.68581 35824 ft 506 kts 271°
2026-04-26 19:00 22.96107 65.60922 35824 ft 506 kts 271°
2026-04-26 19:00 22.96091 65.53256 35824 ft 506 kts 271°
2026-04-26 19:01 22.96072 65.45660 35825 ft 506 kts 271°
2026-04-26 19:01 22.96049 65.37994 35826 ft 506 kts 271°
2026-04-26 19:02 22.96022 65.30352 35829 ft 506 kts 271°
2026-04-26 19:02 22.95997 65.23998 35830 ft 506 kts 271°
2026-04-26 19:03 22.95958 65.15073 35831 ft 506 kts 271°
2026-04-26 19:03 22.95920 65.07420 35832 ft 506 kts 271°
2026-04-26 19:04 22.95879 64.99793 35832 ft 506 kts 271°
2026-04-26 19:04 22.95834 64.92155 35833 ft 506 kts 271°
2026-04-26 19:05 22.96034 64.80688 35838 ft 504 kts 277°
2026-04-26 19:06 22.96847 64.73103 35828 ft 504 kts 278°
2026-04-26 19:06 22.97664 64.65511 35821 ft 504 kts 278°
2026-04-26 19:07 22.98475 64.57896 35819 ft 504 kts 278°
2026-04-26 19:07 22.99278 64.50299 35820 ft 504 kts 278°
2026-04-26 19:08 23.00071 64.42744 35821 ft 504 kts 278°
2026-04-26 19:08 23.00866 64.35131 35822 ft 504 kts 278°
2026-04-26 19:09 23.01653 64.27557 35825 ft 504 kts 277°
2026-04-26 19:09 23.02436 64.19979 35826 ft 504 kts 277°
2026-04-26 19:10 23.03218 64.12370 35827 ft 503 kts 278°
2026-04-26 19:10 23.03994 64.04787 35828 ft 503 kts 278°
2026-04-26 19:11 23.04767 63.97195 35829 ft 503 kts 278°
2026-04-26 19:11 23.05540 63.89571 35830 ft 503 kts 278°
2026-04-26 19:12 23.06316 63.82003 35832 ft 502 kts 278°
2026-04-26 19:12 23.07106 63.74461 35832 ft 502 kts 278°
2026-04-26 19:13 23.07886 63.66959 35832 ft 502 kts 278°
2026-04-26 19:13 23.08669 63.59403 35833 ft 502 kts 278°
2026-04-26 19:14 23.09444 63.51883 35833 ft 501 kts 278°
2026-04-26 19:14 23.10217 63.44338 35838 ft 501 kts 278°
2026-04-26 19:15 23.10983 63.36820 35840 ft 501 kts 278°
2026-04-26 19:15 23.11751 63.29251 35844 ft 501 kts 278°
2026-04-26 19:16 23.12511 63.21735 35842 ft 501 kts 278°
2026-04-26 19:16 23.13265 63.14231 35839 ft 500 kts 278°
2026-04-26 19:17 23.14024 63.06638 35839 ft 500 kts 278°
2026-04-26 19:17 23.14772 62.99124 35840 ft 500 kts 278°
2026-04-26 19:18 23.15512 62.91656 35841 ft 500 kts 278°
2026-04-26 19:18 23.16251 62.84159 35842 ft 499 kts 278°
2026-04-26 19:19 23.16991 62.76612 35841 ft 499 kts 278°
2026-04-26 19:19 23.17721 62.69131 35840 ft 499 kts 278°
2026-04-26 19:20 23.18453 62.61597 35833 ft 499 kts 278°
2026-04-26 19:20 23.19176 62.54106 35824 ft 498 kts 278°
2026-04-26 19:21 23.19897 62.46609 35822 ft 498 kts 278°
2026-04-26 19:21 23.20616 62.39095 35820 ft 497 kts 278°
2026-04-26 19:22 23.21332 62.31565 35824 ft 498 kts 277°
2026-04-26 19:22 23.22035 62.24138 35825 ft 497 kts 277°
2026-04-26 19:23 23.22741 62.16654 35825 ft 497 kts 277°
2026-04-26 19:23 23.23439 62.09204 35825 ft 497 kts 277°
2026-04-26 19:24 23.24136 62.01722 35826 ft 496 kts 277°
2026-04-26 19:24 23.25172 61.90547 35822 ft 495 kts 277°
2026-04-26 19:25 23.25742 61.84361 35822 ft 495 kts 277°
2026-04-26 19:25 23.26545 61.75590 35826 ft 495 kts 277°
2026-04-26 19:26 23.27221 61.68165 35826 ft 494 kts 277°
2026-04-26 19:26 23.27893 61.60749 35825 ft 494 kts 277°
2026-04-26 19:27 23.28564 61.53299 35825 ft 494 kts 277°
2026-04-26 19:27 23.29227 61.45895 35825 ft 494 kts 277°
2026-04-26 19:28 23.29894 61.38415 35824 ft 492 kts 278°
2026-04-26 19:28 23.30215 61.34792 35822 ft 478 kts 277°
2026-04-26 19:28 23.30525 61.31268 35825 ft 463 kts 277°
2026-04-26 19:29 23.30827 61.27848 35826 ft 450 kts 277°
2026-04-26 19:29 23.31129 61.24430 35832 ft 455 kts 277°
2026-04-26 19:29 23.31737 61.17531 35828 ft 458 kts 278°
2026-04-26 19:30 23.32586 61.10701 35830 ft 457 kts 280°
2026-04-26 19:30 23.33323 61.04977 35830 ft 456 kts 280°
2026-04-26 19:31 23.34332 60.97030 35834 ft 456 kts 280°
2026-04-26 19:31 23.35190 60.90194 35835 ft 456 kts 280°
2026-04-26 19:32 23.36039 60.83387 35835 ft 456 kts 280°
2026-04-26 19:32 23.36886 60.76564 35842 ft 455 kts 280°
2026-04-26 19:33 23.37728 60.69746 35856 ft 454 kts 280°
2026-04-26 19:33 23.38967 60.63053 35857 ft 450 kts 291°
2026-04-26 19:34 23.41252 60.56686 35853 ft 449 kts 294°
2026-04-26 19:34 23.43565 60.50386 35849 ft 449 kts 294°
2026-04-26 19:35 23.45895 60.44016 35847 ft 449 kts 293°
2026-04-26 19:35 23.48210 60.37676 35846 ft 448 kts 294°
2026-04-26 19:36 23.50116 60.32446 35851 ft 447 kts 293°
2026-04-26 19:36 23.52793 60.25091 35851 ft 447 kts 293°
2026-04-26 19:37 23.55088 60.18774 35850 ft 447 kts 293°
2026-04-26 19:37 23.57368 60.12474 35850 ft 447 kts 293°
2026-04-26 19:38 23.59658 60.06135 35849 ft 447 kts 293°
2026-04-26 19:38 23.61939 59.99828 35845 ft 446 kts 293°
2026-04-26 19:39 23.64204 59.93569 35841 ft 445 kts 293°
2026-04-26 19:39 23.66475 59.87307 35840 ft 445 kts 293°
2026-04-26 19:40 23.68727 59.81030 35836 ft 445 kts 293°
2026-04-26 19:40 23.70994 59.74725 35837 ft 445 kts 293°
2026-04-26 19:41 23.73252 59.68436 35837 ft 444 kts 293°
2026-04-26 19:41 23.75126 59.63217 35834 ft 444 kts 293°
2026-04-26 19:42 23.77760 59.55851 35833 ft 444 kts 293°
2026-04-26 19:42 23.79991 59.49612 35831 ft 444 kts 293°
2026-04-26 19:43 23.82258 59.43270 35831 ft 444 kts 293°
2026-04-26 19:43 23.84492 59.37000 35833 ft 444 kts 293°
2026-04-26 19:44 23.86733 59.30702 35838 ft 444 kts 292°
2026-04-26 19:44 23.88984 59.24363 35841 ft 444 kts 292°
2026-04-26 19:45 23.91211 59.18090 35836 ft 443 kts 292°
2026-04-26 19:45 23.93420 59.11794 35834 ft 444 kts 291°
2026-04-26 19:46 23.95458 59.05414 35834 ft 444 kts 291°
2026-04-26 19:46 23.97499 58.99016 35833 ft 444 kts 291°
2026-04-26 19:47 23.99193 58.93711 35832 ft 444 kts 291°
2026-04-26 19:47 24.01577 58.86250 35831 ft 443 kts 291°
2026-04-26 19:48 24.03603 58.79901 35830 ft 442 kts 291°
2026-04-26 19:48 24.05625 58.73560 35830 ft 441 kts 291°
2026-04-26 19:49 24.07647 58.67208 35829 ft 440 kts 290°
2026-04-26 19:49 24.09658 58.60881 35828 ft 440 kts 290°
2026-04-26 19:50 24.11684 58.54500 35834 ft 440 kts 290°
2026-04-26 19:50 24.13694 58.48155 35834 ft 440 kts 290°
2026-04-26 19:51 24.15695 58.41832 35833 ft 440 kts 290°
2026-04-26 19:51 24.17706 58.35464 35832 ft 440 kts 290°
2026-04-26 19:52 24.19720 58.29077 35840 ft 439 kts 290°
2026-04-26 19:52 24.21720 58.22725 35840 ft 439 kts 290°
2026-04-26 19:53 24.23723 58.16352 35840 ft 438 kts 290°
2026-04-26 19:53 24.25707 58.10032 35839 ft 439 kts 290°
2026-04-26 19:54 24.27705 58.03654 35839 ft 439 kts 290°
2026-04-26 19:54 24.29672 57.97363 35841 ft 439 kts 290°
2026-04-26 19:55 24.31654 57.91017 35843 ft 439 kts 290°
2026-04-26 19:55 24.33651 57.84610 35844 ft 438 kts 290°
2026-04-26 19:56 24.35623 57.78275 35844 ft 438 kts 290°
2026-04-26 19:56 24.37607 57.71890 35845 ft 438 kts 290°
2026-04-26 19:57 24.39578 57.65535 35844 ft 438 kts 290°
2026-04-26 19:57 24.41535 57.59217 35844 ft 438 kts 290°
2026-04-26 19:58 24.43499 57.52866 35844 ft 438 kts 290°
2026-04-26 19:58 24.44470 57.49720 35741 ft 433 kts 290°
2026-04-26 19:58 24.45425 57.46625 35186 ft 435 kts 290°
2026-04-26 19:59 24.46412 57.43424 34466 ft 440 kts 290°
2026-04-26 19:59 24.47401 57.40214 33731 ft 443 kts 290°
2026-04-26 19:59 24.48386 57.37014 32961 ft 445 kts 290°
2026-04-26 19:59 24.49388 57.33755 32190 ft 447 kts 289°
2026-04-26 20:00 24.50375 57.30543 31436 ft 448 kts 289°
2026-04-26 20:00 24.51376 57.27282 30670 ft 448 kts 289°
2026-04-26 20:00 24.52363 57.24065 30146 ft 441 kts 289°
2026-04-26 20:00 24.53333 57.20901 29692 ft 432 kts 288°
2026-04-26 20:01 24.54275 57.17823 29241 ft 427 kts 288°
2026-04-26 20:01 24.55251 57.14635 28804 ft 446 kts 288°
2026-04-26 20:01 24.56242 57.11391 28371 ft 449 kts 287°
2026-04-26 20:01 24.57224 57.08176 27901 ft 446 kts 287°
2026-04-26 20:02 24.58198 57.04985 27407 ft 441 kts 287°
2026-04-26 20:02 24.59169 57.01801 26896 ft 437 kts 287°
2026-04-26 20:02 24.60126 56.98661 26374 ft 432 kts 287°
2026-04-26 20:02 24.60756 56.96592 26031 ft 430 kts 287°
2026-04-26 20:03 24.62018 56.92444 25347 ft 423 kts 287°
2026-04-26 20:03 24.62938 56.89417 24836 ft 419 kts 287°
2026-04-26 20:03 24.63860 56.86386 24312 ft 415 kts 288°
2026-04-26 20:03 24.64989 56.83512 23787 ft 412 kts 296°
2026-04-26 20:04 24.66441 56.80786 23271 ft 408 kts 299°
2026-04-26 20:04 24.67907 56.78134 22766 ft 403 kts 299°
2026-04-26 20:04 24.69342 56.75539 22275 ft 399 kts 299°
2026-04-26 20:04 24.70783 56.72930 21774 ft 398 kts 299°
2026-04-26 20:05 24.72240 56.70289 21267 ft 411 kts 299°
2026-04-26 20:05 24.73714 56.67616 20745 ft 409 kts 299°
2026-04-26 20:05 24.75184 56.64949 20224 ft 405 kts 299°
2026-04-26 20:05 24.76645 56.62297 19702 ft 401 kts 299°
2026-04-26 20:06 24.78068 56.59712 19193 ft 397 kts 299°
2026-04-26 20:06 24.79498 56.57114 18673 ft 393 kts 299°
2026-04-26 20:06 24.80900 56.54563 18162 ft 390 kts 299°
2026-04-26 20:06 24.82299 56.52015 17654 ft 386 kts 300°
2026-04-26 20:07 24.83691 56.49484 17143 ft 383 kts 300°
2026-04-26 20:07 24.85063 56.46985 16635 ft 380 kts 300°
2026-04-26 20:07 24.86426 56.44499 16135 ft 377 kts 300°
2026-04-26 20:07 24.87612 56.41957 15638 ft 372 kts 290°
2026-04-26 20:08 24.88346 56.39227 15146 ft 367 kts 280°
2026-04-26 20:08 24.88601 56.36455 14666 ft 363 kts 270°
2026-04-26 20:08 24.88445 56.33714 14206 ft 359 kts 264°
2026-04-26 20:08 24.88210 56.30997 13742 ft 356 kts 264°
2026-04-26 20:09 24.88041 56.28295 13282 ft 354 kts 270°
2026-04-26 20:09 24.88298 56.25603 12890 ft 359 kts 281°
2026-04-26 20:09 24.89098 56.22949 12548 ft 361 kts 294°
2026-04-26 20:09 24.90269 56.20560 12467 ft 346 kts 298°
2026-04-26 20:10 24.91424 56.18333 12370 ft 333 kts 298°
2026-04-26 20:10 24.92560 56.16143 12249 ft 321 kts 298°
2026-04-26 20:10 24.93649 56.14035 12122 ft 310 kts 298°
2026-04-26 20:10 24.94698 56.11998 11992 ft 300 kts 298°
2026-04-26 20:11 24.95708 56.10033 11862 ft 290 kts 298°
2026-04-26 20:11 24.96698 56.08106 11734 ft 281 kts 298°
2026-04-26 20:11 24.97753 56.06372 11610 ft 272 kts 308°
2026-04-26 20:12 25.00294 56.03231 10911 ft 275 kts 310°
2026-04-26 20:12 25.01580 56.01665 10555 ft 276 kts 310°
2026-04-26 20:12 25.02863 56.00097 10204 ft 277 kts 310°
2026-04-26 20:12 25.04154 55.98517 9856 ft 278 kts 310°
2026-04-26 20:13 25.05366 55.96842 9486 ft 277 kts 296°
2026-04-26 20:13 25.05886 55.94829 9140 ft 274 kts 274°
2026-04-26 20:13 25.05932 55.92776 8868 ft 264 kts 269°
2026-04-26 20:13 25.05876 55.90804 8848 ft 253 kts 268°
2026-04-26 20:14 25.05805 55.88906 8759 ft 240 kts 269°
2026-04-26 20:14 25.05484 55.87148 8636 ft 234 kts 244°
2026-04-26 20:14 25.04449 55.85738 8502 ft 238 kts 223°
2026-04-26 20:14 25.03104 55.84638 8230 ft 242 kts 216°
2026-04-26 20:15 25.01815 55.83492 7932 ft 235 kts 238°
2026-04-26 20:15 25.01179 55.81879 7686 ft 226 kts 263°
2026-04-26 20:15 25.01254 55.80196 7435 ft 217 kts 288°
2026-04-26 20:15 25.01841 55.78664 7183 ft 210 kts 298°
2026-04-26 20:16 25.02554 55.77275 6950 ft 203 kts 301°
2026-04-26 20:16 25.03276 55.75967 6734 ft 197 kts 302°
2026-04-26 20:16 25.03994 55.74688 6529 ft 194 kts 302°
2026-04-26 20:16 25.04714 55.73399 6323 ft 193 kts 302°
2026-04-26 20:17 25.05417 55.72142 6119 ft 192 kts 302°
2026-04-26 20:17 25.06129 55.70874 5918 ft 191 kts 302°
2026-04-26 20:17 25.06827 55.69625 5719 ft 191 kts 301°
2026-04-26 20:17 25.07290 55.68789 5588 ft 190 kts 302°
2026-04-26 20:18 25.08208 55.67146 5331 ft 188 kts 302°
2026-04-26 20:18 25.08897 55.65909 5122 ft 188 kts 302°
2026-04-26 20:18 25.09590 55.64665 4917 ft 187 kts 302°
2026-04-26 20:18 25.10277 55.63429 4719 ft 187 kts 302°
2026-04-26 20:19 25.10955 55.62217 4519 ft 186 kts 301°
2026-04-26 20:19 25.11584 55.60981 4294 ft 179 kts 299°
2026-04-26 20:19 25.12182 55.59843 4082 ft 163 kts 301°
2026-04-26 20:19 25.12747 55.58824 3892 ft 151 kts 302°
2026-04-26 20:20 25.13293 55.57867 3722 ft 143 kts 302°
2026-04-26 20:20 25.13819 55.56943 3551 ft 144 kts 302°
2026-04-26 20:20 25.14354 55.55997 3366 ft 143 kts 302°
2026-04-26 20:20 25.14879 55.55064 3186 ft 143 kts 302°
2026-04-26 20:21 25.15405 55.54127 3001 ft 144 kts 301°
2026-04-26 20:21 25.15941 55.53172 2814 ft 146 kts 301°
2026-04-26 20:21 25.16475 55.52216 2622 ft 146 kts 301°
2026-04-26 20:21 25.17000 55.51272 2427 ft 145 kts 300°
2026-04-26 20:22 25.17526 55.50321 2212 ft 144 kts 301°
2026-04-26 20:22 25.18049 55.49398 2004 ft 143 kts 301°
2026-04-26 20:22 25.18581 55.48459 1797 ft 142 kts 301°
2026-04-26 20:22 25.19094 55.47531 1625 ft 143 kts 300°
2026-04-26 20:23 25.19611 55.46587 1448 ft 142 kts 300°
2026-04-26 20:23 25.20142 55.45657 1264 ft 144 kts 301°
2026-04-26 20:23 25.20673 55.44705 1091 ft 146 kts 300°
2026-04-26 20:23 25.21204 55.43742 892 ft 147 kts 301°
2026-04-26 20:24 25.21750 55.42772 709 ft 148 kts 300°
2026-04-26 20:24 25.22288 55.41807 527 ft 148 kts 300°
2026-04-26 20:24 25.22835 55.40831 339 ft 148 kts 300°
2026-04-26 20:24 25.23374 55.39861 152 ft 150 kts 300°
2026-04-26 20:25 25.23912 55.38897 47 ft 136 kts 301°
2026-04-26 20:25 25.24207 55.38373 46 ft 103 kts 301°
2026-04-26 20:25 25.24534 55.37783 45 ft 32 kts 302°
2026-04-26 20:25 25.24637 55.37598 45 ft 26 kts 301°
2026-04-26 20:26 25.24730 55.37429 45 ft 25 kts 298°
2026-04-26 20:26 25.24784 55.37246 45 ft 23 kts 277°
2026-04-26 20:26 25.24784 55.37123 45 ft 9 kts 241°
2026-04-26 20:26 25.24727 55.37097 45 ft 9 kts 164°
2026-04-26 20:27 25.24685 55.37153 45 ft 10 kts 122°
2026-04-26 20:27 25.24645 55.37224 45 ft 11 kts 122°
2026-04-26 20:27 25.24597 55.37310 45 ft 15 kts 122°
2026-04-26 20:27 25.24535 55.37421 45 ft 18 kts 122°
2026-04-26 20:28 25.24461 55.37555 45 ft 22 kts 121°
2026-04-26 20:28 25.24374 55.37711 45 ft 25 kts 122°
2026-04-26 20:28 25.24281 55.37880 45 ft 25 kts 121°
2026-04-26 20:28 25.24196 55.38034 46 ft 16 kts 122°
2026-04-26 20:29 25.24148 55.38087 46 ft 7 kts 179°
2026-04-26 20:29 25.24095 55.38065 46 ft 9 kts 211°
2026-04-26 20:29 25.24031 55.38016 46 ft 11 kts 219°
2026-04-26 20:29 25.23974 55.37966 46 ft 10 kts 214°
2026-04-26 20:30 25.23944 55.37970 46 ft 5 kts 135°
2026-04-26 20:30 25.23918 55.38008 46 ft 3 kts 124°
2026-04-26 20:30 25.23912 55.38020 46 ft 0 kts 123°
2026-04-26 20:30 25.23909 55.38025 46 ft 1 kts 123°
2026-04-26 20:31 25.23908 55.38026 46 ft 0 kts 122°